Year,Month,Day,Hour,Minute,Value (Times are PST for temperature in C)
2016,07,25,00,00,18.00
2016,07,25,00,01,17.90
2016,07,25,00,02,17.90
2016,07,25,00,03,17.90
2016,07,25,00,04,17.90
2016,07,25,00,05,17.80
2016,07,25,00,06,17.80
2016,07,25,00,07,17.80
2016,07,25,00,08,17.80
2016,07,25,00,09,17.80
2016,07,25,00,10,17.70
2016,07,25,00,11,17.70
2016,07,25,00,12,17.70
2016,07,25,00,13,17.70
2016,07,25,00,14,17.60
2016,07,25,00,15,17.60
2016,07,25,00,16,17.60
2016,07,25,00,17,17.50
2016,07,25,00,18,17.50
2016,07,25,00,19,17.50
2016,07,25,00,20,17.40
2016,07,25,00,21,17.40
2016,07,25,00,22,17.40
2016,07,25,00,23,17.40
2016,07,25,00,24,17.30
2016,07,25,00,25,17.30
2016,07,25,00,26,17.30
2016,07,25,00,27,17.30
2016,07,25,00,28,17.30
2016,07,25,00,29,17.20
2016,07,25,00,30,17.20
2016,07,25,00,31,17.20
2016,07,25,00,32,17.20
2016,07,25,00,33,17.20
2016,07,25,00,34,17.20
2016,07,25,00,35,17.10
2016,07,25,00,36,17.10
2016,07,25,00,37,17.10
2016,07,25,00,38,17.10
2016,07,25,00,39,17.10
2016,07,25,00,40,17.10
2016,07,25,00,41,17.10
2016,07,25,00,42,17.00
2016,07,25,00,43,17.00
2016,07,25,00,44,17.00
2016,07,25,00,45,16.90
2016,07,25,00,46,16.90
2016,07,25,00,47,16.90
2016,07,25,00,48,16.90
2016,07,25,00,49,16.90
2016,07,25,00,50,16.80
2016,07,25,00,51,16.80
2016,07,25,00,52,16.80
2016,07,25,00,53,16.80
2016,07,25,00,54,16.80
2016,07,25,00,55,16.80
2016,07,25,00,56,16.80
2016,07,25,00,57,16.80
2016,07,25,00,58,16.70
2016,07,25,00,59,16.70
2016,07,25,01,00,16.70
2016,07,25,01,01,16.70
2016,07,25,01,02,16.70
2016,07,25,01,03,16.70
2016,07,25,01,04,16.60
2016,07,25,01,05,16.60
2016,07,25,01,06,16.60
2016,07,25,01,07,16.60
2016,07,25,01,08,16.60
2016,07,25,01,09,16.60
2016,07,25,01,10,16.50
2016,07,25,01,11,16.50
2016,07,25,01,12,16.50
2016,07,25,01,13,16.40
2016,07,25,01,14,16.40
2016,07,25,01,15,16.40
2016,07,25,01,16,16.40
2016,07,25,01,17,16.40
2016,07,25,01,18,16.40
2016,07,25,01,19,16.40
2016,07,25,01,20,16.40
2016,07,25,01,21,16.40
2016,07,25,01,22,16.30
2016,07,25,01,23,16.30
2016,07,25,01,24,16.30
2016,07,25,01,25,16.30
2016,07,25,01,26,16.30
2016,07,25,01,27,16.30
2016,07,25,01,28,16.20
2016,07,25,01,29,16.20
2016,07,25,01,30,16.20
2016,07,25,01,31,16.20
2016,07,25,01,32,16.20
2016,07,25,01,33,16.20
2016,07,25,01,34,16.20
2016,07,25,01,35,16.20
2016,07,25,01,36,16.10
2016,07,25,01,37,16.10
2016,07,25,01,38,16.10
2016,07,25,01,39,16.10
2016,07,25,01,40,16.10
2016,07,25,01,41,16.10
2016,07,25,01,42,16.10
2016,07,25,01,43,16.10
2016,07,25,01,44,16.00
2016,07,25,01,45,16.00
2016,07,25,01,46,16.00
2016,07,25,01,47,16.00
2016,07,25,01,48,16.00
2016,07,25,01,49,16.00
2016,07,25,01,50,15.90
2016,07,25,01,51,15.90
2016,07,25,01,52,15.90
2016,07,25,01,53,15.90
2016,07,25,01,54,15.90
2016,07,25,01,55,15.90
2016,07,25,01,56,15.90
2016,07,25,01,57,15.80
2016,07,25,01,58,15.80
2016,07,25,01,59,15.80
2016,07,25,02,00,15.80
2016,07,25,02,01,15.80
2016,07,25,02,02,15.80
2016,07,25,02,03,15.80
2016,07,25,02,04,15.80
2016,07,25,02,05,15.80
2016,07,25,02,06,15.70
2016,07,25,02,07,15.70
2016,07,25,02,08,15.70
2016,07,25,02,09,15.70
2016,07,25,02,10,15.70
2016,07,25,02,11,15.70
2016,07,25,02,12,15.70
2016,07,25,02,13,15.70
2016,07,25,02,14,15.60
2016,07,25,02,15,15.60
2016,07,25,02,16,15.60
2016,07,25,02,17,15.60
2016,07,25,02,18,15.60
2016,07,25,02,19,15.60
2016,07,25,02,20,15.60
2016,07,25,02,21,15.60
2016,07,25,02,22,15.60
2016,07,25,02,23,15.50
2016,07,25,02,24,15.50
2016,07,25,02,25,15.50
2016,07,25,02,26,15.50
2016,07,25,02,27,15.50
2016,07,25,02,28,15.50
2016,07,25,02,29,15.50
2016,07,25,02,30,15.40
2016,07,25,02,31,15.40
2016,07,25,02,32,15.40
2016,07,25,02,33,15.40
2016,07,25,02,34,15.40
2016,07,25,02,35,15.40
2016,07,25,02,36,15.40
2016,07,25,02,37,15.40
2016,07,25,02,38,15.40
2016,07,25,02,39,15.40
2016,07,25,02,40,15.40
2016,07,25,02,41,15.40
2016,07,25,02,42,15.30
2016,07,25,02,43,15.30
2016,07,25,02,44,15.30
2016,07,25,02,45,15.30
2016,07,25,02,46,15.30
2016,07,25,02,47,15.30
2016,07,25,02,48,15.30
2016,07,25,02,49,15.30
2016,07,25,02,50,15.30
2016,07,25,02,51,15.30
2016,07,25,02,52,15.20
2016,07,25,02,53,15.20
2016,07,25,02,54,15.30
2016,07,25,02,55,15.30
2016,07,25,02,56,15.20
2016,07,25,02,57,15.20
2016,07,25,02,58,15.20
2016,07,25,02,59,15.20
2016,07,25,03,00,15.20
2016,07,25,03,01,15.20
2016,07,25,03,02,15.20
2016,07,25,03,03,15.20
2016,07,25,03,04,15.20
2016,07,25,03,05,15.20
2016,07,25,03,06,15.20
2016,07,25,03,07,15.20
2016,07,25,03,08,15.10
2016,07,25,03,09,15.10
2016,07,25,03,10,15.10
2016,07,25,03,11,15.10
2016,07,25,03,12,15.10
2016,07,25,03,13,15.10
2016,07,25,03,14,15.10
2016,07,25,03,15,15.10
2016,07,25,03,16,15.10
2016,07,25,03,17,15.10
2016,07,25,03,18,15.10
2016,07,25,03,19,15.10
2016,07,25,03,20,15.10
2016,07,25,03,21,15.10
2016,07,25,03,22,15.10
2016,07,25,03,23,15.10
2016,07,25,03,24,15.10
2016,07,25,03,25,15.10
2016,07,25,03,26,15.10
2016,07,25,03,27,15.10
2016,07,25,03,28,15.10
2016,07,25,03,29,15.10
2016,07,25,03,30,15.10
2016,07,25,03,31,15.10
2016,07,25,03,32,15.10
2016,07,25,03,33,15.10
2016,07,25,03,34,15.10
2016,07,25,03,35,15.10
2016,07,25,03,36,15.00
2016,07,25,03,37,15.00
2016,07,25,03,38,15.00
2016,07,25,03,39,15.00
2016,07,25,03,40,15.00
2016,07,25,03,41,15.00
2016,07,25,03,42,15.00
2016,07,25,03,43,15.00
2016,07,25,03,44,15.00
2016,07,25,03,45,15.00
2016,07,25,03,46,15.00
2016,07,25,03,47,15.00
2016,07,25,03,48,15.10
2016,07,25,03,49,15.10
2016,07,25,03,50,15.00
2016,07,25,03,51,15.00
2016,07,25,03,52,15.10
2016,07,25,03,53,15.00
2016,07,25,03,54,15.00
2016,07,25,03,55,15.00
2016,07,25,03,56,15.00
2016,07,25,03,57,15.00
2016,07,25,03,58,15.10
2016,07,25,03,59,15.10
2016,07,25,04,00,15.10
2016,07,25,04,01,15.10
2016,07,25,04,02,15.10
2016,07,25,04,03,15.10
2016,07,25,04,04,15.10
2016,07,25,04,05,15.10
2016,07,25,04,06,15.10
2016,07,25,04,07,15.10
2016,07,25,04,08,15.10
2016,07,25,04,09,15.10
2016,07,25,04,10,15.10
2016,07,25,04,11,15.10
2016,07,25,04,12,15.10
2016,07,25,04,13,15.10
2016,07,25,04,14,15.10
2016,07,25,04,15,15.10
2016,07,25,04,16,15.10
2016,07,25,04,17,15.10
2016,07,25,04,18,15.10
2016,07,25,04,19,15.10
2016,07,25,04,20,15.10
2016,07,25,04,21,15.20
2016,07,25,04,22,15.20
2016,07,25,04,23,15.20
2016,07,25,04,24,15.20
2016,07,25,04,25,15.20
2016,07,25,04,26,15.20
2016,07,25,04,27,15.20
2016,07,25,04,28,15.20
2016,07,25,04,29,15.20
2016,07,25,04,30,15.20
2016,07,25,04,31,15.20
2016,07,25,04,32,15.20
2016,07,25,04,33,15.20
2016,07,25,04,34,15.20
2016,07,25,04,35,15.20
2016,07,25,04,36,15.20
2016,07,25,04,37,15.20
2016,07,25,04,38,15.20
2016,07,25,04,39,15.20
2016,07,25,04,40,15.20
2016,07,25,04,41,15.20
2016,07,25,04,42,15.20
2016,07,25,04,43,15.20
2016,07,25,04,44,15.20
2016,07,25,04,45,15.20
2016,07,25,04,46,15.20
2016,07,25,04,47,15.20
2016,07,25,04,48,15.10
2016,07,25,04,49,15.10
2016,07,25,04,50,15.10
2016,07,25,04,51,15.10
2016,07,25,04,52,15.10
2016,07,25,04,53,15.10
2016,07,25,04,54,15.10
2016,07,25,04,55,15.10
2016,07,25,04,56,15.10
2016,07,25,04,57,15.10
2016,07,25,04,58,15.10
2016,07,25,04,59,15.10
2016,07,25,05,00,15.10
2016,07,25,05,01,15.10
2016,07,25,05,02,15.10
2016,07,25,05,03,15.10
2016,07,25,05,04,15.10
2016,07,25,05,05,15.00
2016,07,25,05,06,15.00
2016,07,25,05,07,15.00
2016,07,25,05,08,15.00
2016,07,25,05,09,15.00
2016,07,25,05,10,15.00
2016,07,25,05,11,15.00
2016,07,25,05,12,15.00
2016,07,25,05,13,15.00
2016,07,25,05,14,14.90
2016,07,25,05,15,14.90
2016,07,25,05,16,14.90
2016,07,25,05,17,14.90
2016,07,25,05,18,14.90
2016,07,25,05,19,14.90
2016,07,25,05,20,14.90
2016,07,25,05,21,14.90
2016,07,25,05,22,14.90
2016,07,25,05,23,14.90
2016,07,25,05,24,14.90
2016,07,25,05,25,14.80
2016,07,25,05,26,14.80
2016,07,25,05,27,14.80
2016,07,25,05,28,14.80
2016,07,25,05,29,14.80
2016,07,25,05,30,14.80
2016,07,25,05,31,14.80
2016,07,25,05,32,14.80
2016,07,25,05,33,14.80
2016,07,25,05,34,14.80
2016,07,25,05,35,14.80
2016,07,25,05,36,14.80
2016,07,25,05,37,14.80
2016,07,25,05,38,14.80
2016,07,25,05,39,14.80
2016,07,25,05,40,14.70
2016,07,25,05,41,14.70
2016,07,25,05,42,14.70
2016,07,25,05,43,14.70
2016,07,25,05,44,14.70
2016,07,25,05,45,14.70
2016,07,25,05,46,14.70
2016,07,25,05,47,14.70
2016,07,25,05,48,14.70
2016,07,25,05,49,14.70
2016,07,25,05,50,14.70
2016,07,25,05,51,14.70
2016,07,25,05,52,14.70
2016,07,25,05,53,14.70
2016,07,25,05,54,14.70
2016,07,25,05,55,14.70
2016,07,25,05,56,14.70
2016,07,25,05,57,14.70
2016,07,25,05,58,14.70
2016,07,25,05,59,14.70
2016,07,25,06,00,14.70
2016,07,25,06,01,14.70
2016,07,25,06,02,14.70
2016,07,25,06,03,14.70
2016,07,25,06,04,14.70
2016,07,25,06,05,14.70
2016,07,25,06,06,14.70
2016,07,25,06,07,14.70
2016,07,25,06,08,14.70
2016,07,25,06,09,14.60
2016,07,25,06,10,14.70
2016,07,25,06,11,14.70
2016,07,25,06,12,14.70
2016,07,25,06,13,14.70
2016,07,25,06,14,14.70
2016,07,25,06,15,14.70
2016,07,25,06,16,14.70
2016,07,25,06,17,14.70
2016,07,25,06,18,14.70
2016,07,25,06,19,14.70
2016,07,25,06,20,14.70
2016,07,25,06,21,14.70
2016,07,25,06,22,14.70
2016,07,25,06,23,14.70
2016,07,25,06,24,14.70
2016,07,25,06,25,14.70
2016,07,25,06,26,14.70
2016,07,25,06,27,14.70
2016,07,25,06,28,14.70
2016,07,25,06,29,14.70
2016,07,25,06,30,14.70
2016,07,25,06,31,14.70
2016,07,25,06,32,14.70
2016,07,25,06,33,14.70
2016,07,25,06,34,14.70
2016,07,25,06,35,14.80
2016,07,25,06,36,14.80
2016,07,25,06,37,14.80
2016,07,25,06,38,14.80
2016,07,25,06,39,14.80
2016,07,25,06,40,14.80
2016,07,25,06,41,14.80
2016,07,25,06,42,14.80
2016,07,25,06,43,14.90
2016,07,25,06,44,14.90
2016,07,25,06,45,14.90
2016,07,25,06,46,14.90
2016,07,25,06,47,14.90
2016,07,25,06,48,14.90
2016,07,25,06,49,14.90
2016,07,25,06,50,14.90
2016,07,25,06,51,14.90
2016,07,25,06,52,14.90
2016,07,25,06,53,14.90
2016,07,25,06,54,14.90
2016,07,25,06,55,15.00
2016,07,25,06,56,14.90
2016,07,25,06,57,15.00
2016,07,25,06,58,15.00
2016,07,25,06,59,15.00
2016,07,25,07,00,15.00
2016,07,25,07,01,15.00
2016,07,25,07,02,15.00
2016,07,25,07,03,15.00
2016,07,25,07,04,15.00
2016,07,25,07,05,15.00
2016,07,25,07,06,15.00
2016,07,25,07,07,15.10
2016,07,25,07,08,15.10
2016,07,25,07,09,15.10
2016,07,25,07,10,15.10
2016,07,25,07,11,15.10
2016,07,25,07,12,15.10
2016,07,25,07,13,15.10
2016,07,25,07,14,15.10
2016,07,25,07,15,15.10
2016,07,25,07,16,15.10
2016,07,25,07,17,15.20
2016,07,25,07,18,15.20
2016,07,25,07,19,15.20
2016,07,25,07,20,15.20
2016,07,25,07,21,15.20
2016,07,25,07,22,15.20
2016,07,25,07,23,15.20
2016,07,25,07,24,15.30
2016,07,25,07,25,15.30
2016,07,25,07,26,15.30
2016,07,25,07,27,15.30
2016,07,25,07,28,15.30
2016,07,25,07,29,15.40
2016,07,25,07,30,15.40
2016,07,25,07,31,15.40
2016,07,25,07,32,15.50
2016,07,25,07,33,15.50
2016,07,25,07,34,15.60
2016,07,25,07,35,15.60
2016,07,25,07,36,15.60
2016,07,25,07,37,15.70
2016,07,25,07,38,15.70
2016,07,25,07,39,15.70
2016,07,25,07,40,15.80
2016,07,25,07,41,15.80
2016,07,25,07,42,15.90
2016,07,25,07,43,15.90
2016,07,25,07,44,15.90
2016,07,25,07,45,16.00
2016,07,25,07,46,16.00
2016,07,25,07,47,16.00
2016,07,25,07,48,16.10
2016,07,25,07,49,16.10
2016,07,25,07,50,16.10
2016,07,25,07,51,16.10
2016,07,25,07,52,16.20
2016,07,25,07,53,16.20
2016,07,25,07,54,16.20
2016,07,25,07,55,16.30
2016,07,25,07,56,16.30
2016,07,25,07,57,16.30
2016,07,25,07,58,16.30
2016,07,25,07,59,16.30
2016,07,25,08,00,16.40
2016,07,25,08,01,16.40
2016,07,25,08,02,16.40
2016,07,25,08,03,16.40
2016,07,25,08,04,16.40
2016,07,25,08,05,16.40
2016,07,25,08,06,16.50
2016,07,25,08,07,16.50
2016,07,25,08,08,16.50
2016,07,25,08,09,16.60
2016,07,25,08,10,16.60
2016,07,25,08,11,16.60
2016,07,25,08,12,16.60
2016,07,25,08,13,16.70
2016,07,25,08,14,16.70
2016,07,25,08,15,16.80
2016,07,25,08,16,16.80
2016,07,25,08,17,16.80
2016,07,25,08,18,16.90
2016,07,25,08,19,16.90
2016,07,25,08,20,16.90
2016,07,25,08,21,16.90
2016,07,25,08,22,17.00
2016,07,25,08,23,17.00
2016,07,25,08,24,17.10
2016,07,25,08,25,17.10
2016,07,25,08,26,17.10
2016,07,25,08,27,17.20
2016,07,25,08,28,17.20
2016,07,25,08,29,17.20
2016,07,25,08,30,17.20
2016,07,25,08,31,17.30
2016,07,25,08,32,17.30
2016,07,25,08,33,17.30
2016,07,25,08,34,17.30
2016,07,25,08,35,17.40
2016,07,25,08,36,17.40
2016,07,25,08,37,17.50
2016,07,25,08,38,17.50
2016,07,25,08,39,17.60
2016,07,25,08,40,17.70
2016,07,25,08,41,17.70
2016,07,25,08,42,17.80
2016,07,25,08,43,17.80
2016,07,25,08,44,17.80
2016,07,25,08,45,17.90
2016,07,25,08,46,17.90
2016,07,25,08,47,18.00
2016,07,25,08,48,18.00
2016,07,25,08,49,18.10
2016,07,25,08,50,18.10
2016,07,25,08,51,18.20
2016,07,25,08,52,18.20
2016,07,25,08,53,18.20
2016,07,25,08,54,18.20
2016,07,25,08,55,18.30
2016,07,25,08,56,18.30
2016,07,25,08,57,18.40
2016,07,25,08,58,18.50
2016,07,25,08,59,18.50
2016,07,25,09,00,18.60
2016,07,25,09,01,18.70
2016,07,25,09,02,18.70
2016,07,25,09,03,18.80
2016,07,25,09,04,18.80
2016,07,25,09,05,18.80
2016,07,25,09,06,18.90
2016,07,25,09,07,18.90
2016,07,25,09,08,18.90
2016,07,25,09,09,18.90
2016,07,25,09,10,18.90
2016,07,25,09,11,18.90
2016,07,25,09,12,18.90
2016,07,25,09,13,18.90
2016,07,25,09,14,18.90
2016,07,25,09,15,18.90
2016,07,25,09,16,18.90
2016,07,25,09,17,18.90
2016,07,25,09,18,18.90
2016,07,25,09,19,18.90
2016,07,25,09,20,19.00
2016,07,25,09,21,19.00
2016,07,25,09,22,19.00
2016,07,25,09,23,19.10
2016,07,25,09,24,19.10
2016,07,25,09,25,19.10
2016,07,25,09,26,19.20
2016,07,25,09,27,19.20
2016,07,25,09,28,19.20
2016,07,25,09,29,19.20
2016,07,25,09,30,19.20
2016,07,25,09,31,19.20
2016,07,25,09,32,19.20
2016,07,25,09,33,19.30
2016,07,25,09,34,19.30
2016,07,25,09,35,19.30
2016,07,25,09,36,19.30
2016,07,25,09,37,19.40
2016,07,25,09,38,19.40
2016,07,25,09,39,19.40
2016,07,25,09,40,19.50
2016,07,25,09,41,19.50
2016,07,25,09,42,19.60
2016,07,25,09,43,19.60
2016,07,25,09,44,19.60
2016,07,25,09,45,19.60
2016,07,25,09,46,19.60
2016,07,25,09,47,19.60
2016,07,25,09,48,19.60
2016,07,25,09,49,19.70
2016,07,25,09,50,19.70
2016,07,25,09,51,19.80
2016,07,25,09,52,19.80
2016,07,25,09,53,19.90
2016,07,25,09,54,19.90
2016,07,25,09,55,19.90
2016,07,25,09,56,20.00
2016,07,25,09,57,20.10
2016,07,25,09,58,20.20
2016,07,25,09,59,20.30
2016,07,25,10,00,20.30
2016,07,25,10,01,20.30
2016,07,25,10,02,20.30
2016,07,25,10,03,20.30
2016,07,25,10,04,20.30
2016,07,25,10,05,20.30
2016,07,25,10,06,20.30
2016,07,25,10,07,20.30
2016,07,25,10,08,20.30
2016,07,25,10,09,20.30
2016,07,25,10,10,20.30
2016,07,25,10,11,20.20
2016,07,25,10,12,20.20
2016,07,25,10,13,20.20
2016,07,25,10,14,20.20
2016,07,25,10,15,20.30
2016,07,25,10,16,20.40
2016,07,25,10,17,20.60
2016,07,25,10,18,20.70
2016,07,25,10,19,20.70
2016,07,25,10,20,20.70
2016,07,25,10,21,20.70
2016,07,25,10,22,20.70
2016,07,25,10,23,20.70
2016,07,25,10,24,20.70
2016,07,25,10,25,20.70
2016,07,25,10,26,20.80
2016,07,25,10,27,20.90
2016,07,25,10,28,21.00
2016,07,25,10,29,21.10
2016,07,25,10,30,21.20
2016,07,25,10,31,21.20
2016,07,25,10,32,21.20
2016,07,25,10,33,21.20
2016,07,25,10,34,21.20
2016,07,25,10,35,21.30
2016,07,25,10,36,21.40
2016,07,25,10,37,21.50
2016,07,25,10,38,21.50
2016,07,25,10,39,21.60
2016,07,25,10,40,21.60
2016,07,25,10,41,21.70
2016,07,25,10,42,21.70
2016,07,25,10,43,21.70
2016,07,25,10,44,21.60
2016,07,25,10,45,21.60
2016,07,25,10,46,21.50
2016,07,25,10,47,21.50
2016,07,25,10,48,21.50
2016,07,25,10,49,21.50
2016,07,25,10,50,21.50
2016,07,25,10,51,21.40
2016,07,25,10,52,21.40
2016,07,25,10,53,21.40
2016,07,25,10,54,21.50
2016,07,25,10,55,21.50
2016,07,25,10,56,21.50
2016,07,25,10,57,21.70
2016,07,25,10,58,21.80
2016,07,25,10,59,21.90
2016,07,25,11,00,22.00
2016,07,25,11,01,22.10
2016,07,25,11,02,22.20
2016,07,25,11,03,22.20
2016,07,25,11,04,22.20
2016,07,25,11,05,22.20
2016,07,25,11,06,22.10
2016,07,25,11,07,22.10
2016,07,25,11,08,22.10
2016,07,25,11,09,22.10
2016,07,25,11,10,22.20
2016,07,25,11,11,22.20
2016,07,25,11,12,22.30
2016,07,25,11,13,22.30
2016,07,25,11,14,22.30
2016,07,25,11,15,22.30
2016,07,25,11,16,22.30
2016,07,25,11,17,22.30
2016,07,25,11,18,22.30
2016,07,25,11,19,22.30
2016,07,25,11,20,22.30
2016,07,25,11,21,22.40
2016,07,25,11,22,22.40
2016,07,25,11,23,22.50
2016,07,25,11,24,22.60
2016,07,25,11,25,22.70
2016,07,25,11,26,22.80
2016,07,25,11,27,22.80
2016,07,25,11,28,22.80
2016,07,25,11,29,22.90
2016,07,25,11,30,22.90
2016,07,25,11,31,22.90
2016,07,25,11,32,23.00
2016,07,25,11,33,23.10
2016,07,25,11,34,23.20
2016,07,25,11,35,23.30
2016,07,25,11,36,23.40
2016,07,25,11,37,23.50
2016,07,25,11,38,23.50
2016,07,25,11,39,23.50
2016,07,25,11,40,23.60
2016,07,25,11,41,23.60
2016,07,25,11,42,23.60
2016,07,25,11,43,23.70
2016,07,25,11,44,23.80
2016,07,25,11,45,23.90
2016,07,25,11,46,24.00
2016,07,25,11,47,24.10
2016,07,25,11,48,24.20
2016,07,25,11,49,24.10
2016,07,25,11,50,24.10
2016,07,25,11,51,24.10
2016,07,25,11,52,24.00
2016,07,25,11,53,23.90
2016,07,25,11,54,23.90
2016,07,25,11,55,23.90
2016,07,25,11,56,23.90
2016,07,25,11,57,23.90
2016,07,25,11,58,23.90
2016,07,25,11,59,24.00
2016,07,25,12,00,24.10
2016,07,25,12,01,24.20
2016,07,25,12,02,24.40
2016,07,25,12,03,24.60
2016,07,25,12,04,24.70
2016,07,25,12,05,24.90
2016,07,25,12,06,25.00
2016,07,25,12,07,25.10
2016,07,25,12,08,25.10
2016,07,25,12,09,25.20
2016,07,25,12,10,25.20
2016,07,25,12,11,25.30
2016,07,25,12,12,25.30
2016,07,25,12,13,25.30
2016,07,25,12,14,25.30
2016,07,25,12,15,25.30
2016,07,25,12,16,25.30
2016,07,25,12,17,25.30
2016,07,25,12,18,25.30
2016,07,25,12,19,25.40
2016,07,25,12,20,25.50
2016,07,25,12,21,25.60
2016,07,25,12,22,25.50
2016,07,25,12,23,25.50
2016,07,25,12,24,25.40
2016,07,25,12,25,25.40
2016,07,25,12,26,25.30
2016,07,25,12,27,25.30
2016,07,25,12,28,25.30
2016,07,25,12,29,25.30
2016,07,25,12,30,25.40
2016,07,25,12,31,25.50
2016,07,25,12,32,25.50
2016,07,25,12,33,25.60
2016,07,25,12,34,25.70
2016,07,25,12,35,25.80
2016,07,25,12,36,25.80
2016,07,25,12,37,25.90
2016,07,25,12,38,26.00
2016,07,25,12,39,26.10
2016,07,25,12,40,26.10
2016,07,25,12,41,26.10
2016,07,25,12,42,26.20
2016,07,25,12,43,26.20
2016,07,25,12,44,26.30
2016,07,25,12,45,26.40
2016,07,25,12,46,26.50
2016,07,25,12,47,26.60
2016,07,25,12,48,26.60
2016,07,25,12,49,26.70
2016,07,25,12,50,26.80
2016,07,25,12,51,26.90
2016,07,25,12,52,27.00
2016,07,25,12,53,27.10
2016,07,25,12,54,27.30
2016,07,25,12,55,27.30
2016,07,25,12,56,27.30
2016,07,25,12,57,27.30
2016,07,25,12,58,27.30
2016,07,25,12,59,27.30
2016,07,25,13,00,27.40
2016,07,25,13,01,27.50
2016,07,25,13,02,27.50
2016,07,25,13,03,27.60
2016,07,25,13,04,27.60
2016,07,25,13,05,27.60
2016,07,25,13,06,27.60
2016,07,25,13,07,27.70
2016,07,25,13,08,27.70
2016,07,25,13,09,27.80
2016,07,25,13,10,27.80
2016,07,25,13,11,27.80
2016,07,25,13,12,27.80
2016,07,25,13,13,27.80
2016,07,25,13,14,27.70
2016,07,25,13,15,27.70
2016,07,25,13,16,27.70
2016,07,25,13,17,27.80
2016,07,25,13,18,28.00
2016,07,25,13,19,28.10
2016,07,25,13,20,28.20
2016,07,25,13,21,28.20
2016,07,25,13,22,28.20
2016,07,25,13,23,28.20
2016,07,25,13,24,28.20
2016,07,25,13,25,28.30
2016,07,25,13,26,28.30
2016,07,25,13,27,28.40
2016,07,25,13,28,28.40
2016,07,25,13,29,28.40
2016,07,25,13,30,28.30
2016,07,25,13,31,28.30
2016,07,25,13,32,28.30
2016,07,25,13,33,28.30
2016,07,25,13,34,28.30
2016,07,25,13,35,28.40
2016,07,25,13,36,28.50
2016,07,25,13,37,28.60
2016,07,25,13,38,28.60
2016,07,25,13,39,28.60
2016,07,25,13,40,28.60
2016,07,25,13,41,28.60
2016,07,25,13,42,28.70
2016,07,25,13,43,28.70
2016,07,25,13,44,28.70
2016,07,25,13,45,28.70
2016,07,25,13,46,28.70
2016,07,25,13,47,28.70
2016,07,25,13,48,28.70
2016,07,25,13,49,28.70
2016,07,25,13,50,28.80
2016,07,25,13,51,28.80
2016,07,25,13,52,28.80
2016,07,25,13,53,28.80
2016,07,25,13,54,28.80
2016,07,25,13,55,28.90
2016,07,25,13,56,28.90
2016,07,25,13,57,28.90
2016,07,25,13,58,28.90
2016,07,25,13,59,28.90
2016,07,25,14,00,28.80
2016,07,25,14,01,28.80
2016,07,25,14,02,28.80
2016,07,25,14,03,28.80
2016,07,25,14,04,28.90
2016,07,25,14,05,28.90
2016,07,25,14,06,28.90
2016,07,25,14,07,28.90
2016,07,25,14,08,28.90
2016,07,25,14,09,28.80
2016,07,25,14,10,28.80
2016,07,25,14,11,28.80
2016,07,25,14,12,28.90
2016,07,25,14,13,28.90
2016,07,25,14,14,29.00
2016,07,25,14,15,29.00
2016,07,25,14,16,29.00
2016,07,25,14,17,29.10
2016,07,25,14,18,29.10
2016,07,25,14,19,29.10
2016,07,25,14,20,29.10
2016,07,25,14,21,29.10
2016,07,25,14,22,29.10
2016,07,25,14,23,29.20
2016,07,25,14,24,29.30
2016,07,25,14,25,29.30
2016,07,25,14,26,29.40
2016,07,25,14,27,29.40
2016,07,25,14,28,29.50
2016,07,25,14,29,29.60
2016,07,25,14,30,29.60
2016,07,25,14,31,29.60
2016,07,25,14,32,29.70
2016,07,25,14,33,29.70
2016,07,25,14,34,29.60
2016,07,25,14,35,29.60
2016,07,25,14,36,29.60
2016,07,25,14,37,29.60
2016,07,25,14,38,29.60
2016,07,25,14,39,29.70
2016,07,25,14,40,29.70
2016,07,25,14,41,29.80
2016,07,25,14,42,29.80
2016,07,25,14,43,29.90
2016,07,25,14,44,30.00
2016,07,25,14,45,30.00
2016,07,25,14,46,29.90
2016,07,25,14,47,29.90
2016,07,25,14,48,29.80
2016,07,25,14,49,29.80
2016,07,25,14,50,29.80
2016,07,25,14,51,29.80
2016,07,25,14,52,29.80
2016,07,25,14,53,29.70
2016,07,25,14,54,29.70
2016,07,25,14,55,29.70
2016,07,25,14,56,29.70
2016,07,25,14,57,29.80
2016,07,25,14,58,29.80
2016,07,25,14,59,29.80
2016,07,25,15,00,29.80
2016,07,25,15,01,29.80
2016,07,25,15,02,29.80
2016,07,25,15,03,29.80
2016,07,25,15,04,29.80
2016,07,25,15,05,29.80
2016,07,25,15,06,29.80
2016,07,25,15,07,29.80
2016,07,25,15,08,29.80
2016,07,25,15,09,29.80
2016,07,25,15,10,29.80
2016,07,25,15,11,29.80
2016,07,25,15,12,29.80
2016,07,25,15,13,29.80
2016,07,25,15,14,29.80
2016,07,25,15,15,29.80
2016,07,25,15,16,29.90
2016,07,25,15,17,29.90
2016,07,25,15,18,29.90
2016,07,25,15,19,29.90
2016,07,25,15,20,29.90
2016,07,25,15,21,29.90
2016,07,25,15,22,29.90
2016,07,25,15,23,29.90
2016,07,25,15,24,29.90
2016,07,25,15,25,29.90
2016,07,25,15,26,29.80
2016,07,25,15,27,29.80
2016,07,25,15,28,29.90
2016,07,25,15,29,30.00
2016,07,25,15,30,30.00
2016,07,25,15,31,30.10
2016,07,25,15,32,30.10
2016,07,25,15,33,30.00
2016,07,25,15,34,29.90
2016,07,25,15,35,29.90
2016,07,25,15,36,29.90
2016,07,25,15,37,29.90
2016,07,25,15,38,29.80
2016,07,25,15,39,29.80
2016,07,25,15,40,29.80
2016,07,25,15,41,29.80
2016,07,25,15,42,29.80
2016,07,25,15,43,29.80
2016,07,25,15,44,29.70
2016,07,25,15,45,29.70
2016,07,25,15,46,29.70
2016,07,25,15,47,29.70
2016,07,25,15,48,29.60
2016,07,25,15,49,29.50
2016,07,25,15,50,29.50
2016,07,25,15,51,29.40
2016,07,25,15,52,29.30
2016,07,25,15,53,29.30
2016,07,25,15,54,29.20
2016,07,25,15,55,29.20
2016,07,25,15,56,29.20
2016,07,25,15,57,29.20
2016,07,25,15,58,29.30
2016,07,25,15,59,29.30
2016,07,25,16,00,29.20
2016,07,25,16,01,29.20
2016,07,25,16,02,29.20
2016,07,25,16,03,29.20
2016,07,25,16,04,29.20
2016,07,25,16,05,29.30
2016,07,25,16,06,29.30
2016,07,25,16,07,29.30
2016,07,25,16,08,29.30
2016,07,25,16,09,29.40
2016,07,25,16,10,29.40
2016,07,25,16,11,29.40
2016,07,25,16,12,29.40
2016,07,25,16,13,29.50
2016,07,25,16,14,29.50
2016,07,25,16,15,29.60
2016,07,25,16,16,29.70
2016,07,25,16,17,29.70
2016,07,25,16,18,29.70
2016,07,25,16,19,29.60
2016,07,25,16,20,29.60
2016,07,25,16,21,29.50
2016,07,25,16,22,29.50
2016,07,25,16,23,29.60
2016,07,25,16,24,29.70
2016,07,25,16,25,29.70
2016,07,25,16,26,29.70
2016,07,25,16,27,29.70
2016,07,25,16,28,29.80
2016,07,25,16,29,29.80
2016,07,25,16,30,29.70
2016,07,25,16,31,29.70
2016,07,25,16,32,29.70
2016,07,25,16,33,29.70
2016,07,25,16,34,29.70
2016,07,25,16,35,29.60
2016,07,25,16,36,29.60
2016,07,25,16,37,29.60
2016,07,25,16,38,29.60
2016,07,25,16,39,29.60
2016,07,25,16,40,29.60
2016,07,25,16,41,29.50
2016,07,25,16,42,29.50
2016,07,25,16,43,29.50
2016,07,25,16,44,29.50
2016,07,25,16,45,29.50
2016,07,25,16,46,29.50
2016,07,25,16,47,29.40
2016,07,25,16,48,29.40
2016,07,25,16,49,29.40
2016,07,25,16,50,29.30
2016,07,25,16,51,29.30
2016,07,25,16,52,29.20
2016,07,25,16,53,29.20
2016,07,25,16,54,29.20
2016,07,25,16,55,29.10
2016,07,25,16,56,29.10
2016,07,25,16,57,29.00
2016,07,25,16,58,29.00
2016,07,25,16,59,28.90
2016,07,25,17,00,28.90
2016,07,25,17,01,28.80
2016,07,25,17,02,28.70
2016,07,25,17,03,28.70
2016,07,25,17,04,28.70
2016,07,25,17,05,28.70
2016,07,25,17,06,28.60
2016,07,25,17,07,28.60
2016,07,25,17,08,28.60
2016,07,25,17,09,28.60
2016,07,25,17,10,28.60
2016,07,25,17,11,28.60
2016,07,25,17,12,28.60
2016,07,25,17,13,28.60
2016,07,25,17,14,28.60
2016,07,25,17,15,28.60
2016,07,25,17,16,28.50
2016,07,25,17,17,28.40
2016,07,25,17,18,28.40
2016,07,25,17,19,28.30